X-CUBESAT (42707 NORAD) Tracking and Keplerian Element Data

This shows tracking and keplerian element data for the satellite.

Feedback or suggestion? Click here.




ElementValue
Catalog42707
NameX-CUBESAT
Epoch Orbit6668
Epoch Day198.44000708
Epoch Year2018
RAAN199.4294
Inclination51.6304
Eccentricity0.0002219
Argument of Perigee8.2943
Mean Anonmoly351.8092
Mean Motion15.73438915
Decay Rate0.00032509
L11 42707U 98067LQ 18198.44000708 .00032509 00000-0 23237-3 0 9999
L22 42707 51.6304 199.4294 0002219 8.2943 351.8092 15.73438915 66689

Live tracking and technical data element details for X-CUBESAT (NORAD 42707). X-CUBESAT can be tracked NOW for your location showing map with azimuth and elevation plus other details from your city location.

Track the satellite on the map from your city or location and see movement details for azimuth, elevation, latitude, longitude, range, height, and movement on the map or in text.







IsCatalogInMostPopularTable: catalog: 42707, numindb: 131
Update: records affected: 1



GetName: 42707 X-CUBESAT

Hit Count: updated at: Thu, 19 Jul 2018 21:15:24 GMT